• Join FlightAware (Why Join?)
  • Login
  • US Flag GB Flag 
00:10 EST


 

Airport Tracker/Info


-or-


 

Live Flight TrackerFlight Track Log ✈ PDT4226 ✈ 03-Feb-2014 ✈ KBGM - KPHL

Flight Track Log - Related Links

Times and Time Zones

All times are in EST time to prevent confusion due to time zone crossing. See the PDT4226 flight status page for this flight to view local times or setup timezone preferences in your user account.

Time Position Orientation Groundspeed Altitude Reporting Facility
EST Latitude Longitude Course Direction KTS MPH feet Rate Location/Type
13:58 42.0059 -75.9134 180° South  Level Estimated
13:59 41.9384 -75.8914 180° South  Level Estimated
14:00 41.8698 -75.9067 189° South  Level FlightAware Approximate
14:01 41.8013 -75.9219 189° South  Level FlightAware Approximate
14:02 41.7342 -75.8976 154° Southeast  Level Estimated
14:03 41.6672 -75.8732 160° South  Level Estimated
14:04 41.6001 -75.8490 159° South  Level Estimated
14:05 41.5349 -75.8170 160° South  Level FlightAware Approximate
14:06 41.4677 -75.7932 153° Southeast  Level Estimated
14:07 41.4006 -75.7694 161° South  Level Estimated
14:08 41.3380 -75.7291 154° Southeast  Level FlightAware Approximate
14:09 41.2707 -75.7062 162° South  Level Estimated
14:10 41.2059 -75.6727 159° South  Level FlightAware Approximate
14:11 41.1412 -75.6393 159° South  Level FlightAware Approximate
14:12 41.0764 -75.6059 159° South  Level FlightAware Approximate
14:13 41.0116 -75.5726 159° South  Level FlightAware Approximate
14:14 40.9438 -75.5526 163° South  Level Estimated
14:15 40.8781 -75.5228 161° South  Level FlightAware Approximate
14:16 40.8123 -75.4931 161° South  Level FlightAware Approximate
14:17 40.7466 -75.4635 161° South  Level FlightAware Approximate
14:18 40.6784 -75.4459 190° South  Level Estimated
14:19 40.6107 -75.4665 193° South  Level FlightAware Approximate
14:20 40.5430 -75.4870 193° South  Level FlightAware Approximate
14:21 40.4761 -75.4622 187° South  Level Estimated
14:22 40.4092 -75.4375 190° South  Level Estimated
14:23 40.3481 -75.4808 208° Southwest  Level FlightAware Approximate
14:24 40.2869 -75.5240 208° Southwest  Level FlightAware Approximate
14:24 40.6667 -75.6667 123° Southeast 211 243 8,000  Level Philadelphia TRACON
14:25 40.2254 -75.4817 143° Southeast  Level Estimated
14:25 40.5833 -75.6333 163° South 227 261 7,400  Level Philadelphia TRACON
14:26 40.1638 -75.4395 143° Southeast  Level Estimated
14:26 40.5167 -75.6167 169° South 235 270 7,000  Level Philadelphia TRACON
14:27 40.1022 -75.3974 143° Southeast  Level Estimated
14:27 40.4500 -75.6167 180° South 220 253 7,100  Level Philadelphia TRACON
14:28 40.0407 -75.3554 143° Southeast  Level Estimated
14:28 40.4000 -75.6000 166° South 216 249 7,100  Level Philadelphia TRACON
14:29 39.9711 -75.3255 123° Southeast  Level FlightAware Approximate
14:29 40.3333 -75.5833 169° South 217 250 7,100  Level Philadelphia TRACON
14:30 40.2833 -75.5833 180° South 216 249 6,900 -540 Descending Philadelphia TRACON
14:31 40.2000 -75.5667 171° South 247 284 6,100 -480 Descending Philadelphia TRACON
14:32 40.1500 -75.5667 180° South 224 258 6,000 -600 Descending Philadelphia TRACON
14:33 40.0833 -75.5500 169° South 235 270 5,000 -960 Descending Philadelphia TRACON
14:34 40.0167 -75.5167 159° South 240 276 4,100 -540 Descending Philadelphia TRACON
14:35 39.9667 -75.4667 143° Southeast 221 254 4,000  Descending Philadelphia TRACON
14:36 39.9167 -75.5167 217° Southwest 214 246 4,100  Climbing Philadelphia TRACON
14:37 39.9000 -75.5667 247° West 213 245 4,100  Level Philadelphia TRACON
14:38 39.8667 -75.6333 237° Southwest 213 245 4,100  Level Philadelphia TRACON
14:39 39.8167 -75.7000 226° Southwest 213 245 4,100  Level Philadelphia TRACON
14:40 39.7833 -75.6667 142° Southeast 193 222 4,100  Level Philadelphia TRACON
14:41 39.8000 -75.6167 67° East 173 199 4,100  Level Philadelphia TRACON
14:42 39.8000 -75.5500 90° East 169 194 4,100 -300 Level Philadelphia TRACON
14:43 39.8167 -75.5000 67° East 165 190 3,600 -720 Descending Philadelphia TRACON
14:44 39.8333 -75.4500 67° East 148 170 2,800 -780 Descending Philadelphia TRACON
14:45 39.8333 -75.3833 90° East 134 154 2,000 -720 Descending Philadelphia TRACON
14:46 39.8500 -75.3500 57° Northeast 119 137 1,400 -720 Descending Philadelphia TRACON
14:47 39.8500 -75.3000 90° East 118 136 600 -780 Descending Philadelphia TRACON